GW0035 Weather Reports


time (UTC)temp
F
wind
direction
speed
knots
gust
knots
rain 1hr
in
rain 24hr
in
rain mn
in
humidity
%
barometer
mb
20260508042153 93 113 0.9 0.9 0.00 0.00 0.00 76 995.9
20260508041653 93 45 0.9 0.9 0.00 0.00 0.00 76 995.9
20260508040153 93 90 0.9 0.9 0.00 0.00 0.00 77 995.9
20260508035654 93 23 0.9 0.9 0.00 0.00 0.00 78 995.9
20260508035153 92 45 0.9 0.9 0.00 0.00 0.00 79 995.9
20260508034153 92 45 0.9 0.9 0.00 0.00 0.00 80 996.3
20260508032653 91 180 0.9 0.9 0.00 0.00 0.00 81 995.9
20260508032153 90 225 0.9 0.9 0.00 0.00 0.00 81 995.9
20260508031153 90 90 0.9 0.9 0.00 0.00 0.00 83 996.3
20260508030653 89 68 1.7 1.7 0.00 0.00 0.00 84 995.9
20260508024653 86 90 1.7 1.7 0.00 0.00 0.00 88 995.9
20260508021653 84 23 1.7 1.7 0.00 0.00 0.00 92 995.9
20260508021153 84 225 2.6 2.6 0.00 0.00 0.00 92 995.9
20260508020153 83 45 2.6 2.6 0.00 0.00 0.00 94 995.9
20260507152807 83 225 1.7 1.7 0.00 0.00 0.00 98 995.6
20260507152307 82 338 1.7 1.7 0.00 0.00 0.00 99 995.6
20260507151807 82 293 1.7 1.7 0.00 0.00 0.00 99 995.3
20260507150856 82 225 1.7 1.7 0.00 0.00 0.00 98 995.3
20260507144356 82 270 2.6 2.6 0.00 0.00 0.00 97 994.6
20260507143856 82 248 2.6 2.6 0.00 0.00 0.00 97 994.6
20260507142357 82 248 6.1 6.1 0.00 0.00 0.00 99 994.6
20260507130055 84 270 1.7 1.7 0.09 0.00 0.26 99 992.9
20260507125054 85 203 2.6 2.6 0.09 0.00 0.26 98 992.6
20260507124555 86 270 2.6 2.6 0.09 0.00 0.26 96 992.2
20260507124054 87 248 2.6 2.6 0.07 0.00 0.24 93 992.2
20260507123554 90 225 2.6 2.6 0.04 0.00 0.21 88 992.2
20260507122555 91 315 3.5 3.5 0.00 0.00 0.17 80 992.2
20260507120555 93 248 3.5 3.5 0.00 0.00 0.17 78 991.9
20260507115555 94 270 3.5 3.5 0.00 0.00 0.17 78 991.9
20260507114555 93 23 3.5 3.5 0.00 0.00 0.17 78 991.9
20260507103906 95 0 4.3 4.3 0.00 0.00 0.17 77 991.5
20260507103406 96 270 3.5 3.5 0.00 0.00 0.17 78 991.5
20260507102406 95 248 3.5 3.5 0.00 0.00 0.17 79 991.5
20260507101406 96 225 3.5 3.5 0.00 0.00 0.17 76 991.9
20260507100406 97 293 3.5 3.5 0.00 0.00 0.17 76 991.9
20260507094406 96 180 3.5 3.5 0.00 0.00 0.17 78 992.2
20260507092905 96 293 3.5 3.5 0.00 0.00 0.17 78 992.2
20260507091905 95 248 3.5 3.5 0.00 0.00 0.17 78 992.2
20260507090905 96 203 2.6 2.6 0.00 0.00 0.17 78 992.2